Flag for Cambodia Weather past 2 weeks in Phnom Penh, Cambodia

Now
82 °F

Passing clouds.


Feels Like: 89 °F
Forecast: 78 / 93 °F
Wind: 7 mph from South

Location: Phnom-Penh / Pochentong

Current Time: Aug 31, 2015 at 12:00:42 AM

Latest Report: Aug 30, 2015 at 11:30 PM


Visibility: 6 mi

Pressure: 29.83 "Hg

Humidity: 79%

Dew point: 75 °F

Location of Phnom PenhLocation

Historic Weather in Phnom Penh — Graph

°F

Phnom Penh temperature yesterday

Maximum temperature yesterday: 93 °F (at 12:00 PM)
Minimum temperature yesterday: 79 °F (at 6:00 AM)
Average temperature yesterday: 87 °F

Past Weeks' High & Low Weather Summary

 TemperatureHumidityPressure
High97 °F (Aug 17, 1:30 PM)100% (Aug 27, 8:30 PM)29.86 "Hg (Aug 27, 8:30 PM)
Low75 °F (Aug 27, 8:30 PM)19% (Aug 24, 6:00 PM)29.62 "Hg (Aug 21, 3:30 PM)
Average86 °F70%29.75 "Hg
* Reported Aug 15 10:30 PM — Aug 30 10:30 PM, Phnom Penh, Weather by CustomWeather, © 2015

Note: Actual official high and low records may vary slightly from our data, if they occured in-between our weather recording intervals... More about our weather records

Advertising

Phnom Penh weather history for previous 24 hours

 ConditionsComfort  
Time TempWeatherWind HumidityBarometerVisibility
10:30 PM
Sun, Aug 30
82 °FPassing clouds.7 mph79%29.83 "Hg6 mi
10:00 PM82 °FPassing clouds.7 mph79%29.83 "Hg6 mi
9:30 PM82 °FPassing clouds.7 mph79%29.83 "Hg6 mi
9:00 PM82 °FPassing clouds.5 mph79%29.83 "Hg6 mi
8:30 PM84 °FPassing clouds.6 mph74%29.80 "Hg6 mi
8:00 PM86 °FPassing clouds.7 mph66%29.77 "Hg6 mi
7:30 PM86 °FPassing clouds.10 mph66%29.77 "Hg6 mi
7:00 PM86 °FPassing clouds.12 mph66%29.74 "Hg6 mi
6:30 PM88 °FPassing clouds.10 mph62%29.74 "Hg6 mi
6:00 PM88 °FScattered clouds.10 mph62%29.71 "Hg6 mi
5:30 PM90 °FScattered clouds.12 mph55%29.71 "Hg6 mi
4:30 PM90 °FScattered clouds.14 mph59%29.71 "HgN/A
4:00 PM90 °FScattered clouds.16 mph63%29.71 "HgN/A
3:30 PM90 °FScattered clouds.14 mph63%29.71 "HgN/A
3:00 PM88 °FScattered clouds.14 mph66%29.71 "HgN/A
2:30 PM88 °FScattered clouds.15 mph70%29.74 "HgN/A
2:00 PM93 °FScattered clouds.13 mph53%29.74 "HgN/A
1:30 PM93 °FScattered clouds.13 mph56%29.74 "HgN/A
1:00 PM91 °FScattered clouds.12 mph56%29.77 "HgN/A
12:30 PM93 °FScattered clouds.10 mph53%29.77 "HgN/A
12:00 PM93 °FScattered clouds.12 mph53%29.80 "HgN/A
11:30 AM91 °FScattered clouds.14 mph56%29.80 "HgN/A
10:30 AM91 °FScattered clouds.13 mph56%29.80 "HgN/A
10:00 AM90 °FScattered clouds.10 mph59%29.80 "HgN/A
9:30 AM88 °FScattered clouds.12 mph66%29.83 "HgN/A
9:00 AM88 °FPassing clouds.12 mph66%29.80 "HgN/A
8:30 AM86 °FPassing clouds.9 mph70%29.80 "HgN/A
8:00 AM84 °FPassing clouds.7 mph74%29.80 "HgN/A
7:30 AM82 °FPassing clouds.6 mph79%29.80 "HgN/A
7:00 AM81 °FPassing clouds.6 mph84%29.80 "HgN/A
6:30 AM81 °FScattered clouds.3 mph84%29.77 "Hg6 mi
6:00 AM79 °FScattered clouds.6 mph89%29.77 "Hg6 mi
1:00 AM81 °FPassing clouds.5 mph84%29.77 "Hg6 mi
12:30 AM81 °FPassing clouds.5 mph84%29.80 "Hg6 mi
12:00 AM82 °FPassing clouds.7 mph79%29.80 "Hg6 mi
Weather by CustomWeather, © 2015

See weather overviewHow to use our weather pages